• In Deutschland
  • Länderverzeichnis
  • Für 7 Tage
  • Wassertemperatur
  • Satellitenkarten
  • Wetterkarte
  • Widgets
  • user-avatar
    Anmelden

    Stündliche Wetter Scharan

    Heute, 23 Juli, Sonntag

    Zeit Temperatur Niederschläge Wind Luftdruck Luftfeuchtigkeit
    00:00 +25°C° 0,2 mm 3 m/S 587 mmHg 51%
    01:00 +25°C° 0,2 mm 2 m/S 587 mmHg 52%
    02:00 +25°C° 0,2 mm 2 m/S 586 mmHg 53%
    03:00 +24°C° 0 mm 2 m/S 586 mmHg 54%
    04:00 +24°C° 0 mm 2 m/S 586 mmHg 55%
    05:00 +23°C° 0 mm 1 m/S 586 mmHg 56%
    06:00 +24°C° 0 mm 1 m/S 586 mmHg 52%
    07:00 +24°C° 0 mm 1 m/S 586 mmHg 49%
    08:00 +24°C° 0 mm 1 m/S 587 mmHg 45%
    09:00 +26°C° 0 mm 1 m/S 587 mmHg 40%
    10:00 +27°C° 0 mm 1 m/S 587 mmHg 36%
    11:00 +28°C° 0 mm 1 m/S 587 mmHg 32%
    12:00 +29°C° 0 mm 1 m/S 587 mmHg 28%
    13:00 +30°C° 0 mm 1 m/S 587 mmHg 24%
    14:00 +31°C° 0 mm 2 m/S 587 mmHg 20%
    15:00 +31°C° 0 mm 2 m/S 587 mmHg 19%
    16:00 +32°C° 0 mm 2 m/S 587 mmHg 18%
    17:00 +32°C° 0 mm 2 m/S 587 mmHg 17%
    18:00 +31°C° 0 mm 2 m/S 586 mmHg 20%
    19:00 +31°C° 0 mm 3 m/S 586 mmHg 22%
    20:00 +30°C° 0 mm 3 m/S 586 mmHg 25%
    21:00 +29°C° 0 mm 4 m/S 586 mmHg 31%
    22:00 +28°C° 0 mm 4 m/S 586 mmHg 37%
    23:00 +27°C° 0 mm 4 m/S 586 mmHg 43%

    Morgen, 24 Juli, Montag

    Zeit Temperatur Niederschläge Wind Luftdruck Luftfeuchtigkeit
    00:00 +26°C° 0 mm 4 m/S 586 mmHg 45%
    01:00 +26°C° 0 mm 3 m/S 586 mmHg 47%
    02:00 +25°C° 0 mm 3 m/S 585 mmHg 49%
    03:00 +25°C° 0 mm 3 m/S 585 mmHg 49%
    04:00 +24°C° 0 mm 2 m/S 585 mmHg 50%
    05:00 +24°C° 0 mm 2 m/S 585 mmHg 51%
    06:00 +24°C° 0 mm 2 m/S 585 mmHg 47%
    07:00 +25°C° 0 mm 2 m/S 586 mmHg 44%
    08:00 +25°C° 0 mm 2 m/S 586 mmHg 41%
    09:00 +26°C° 0 mm 1 m/S 586 mmHg 38%
    10:00 +27°C° 0 mm 1 m/S 586 mmHg 35%
    11:00 +28°C° 0 mm 1 m/S 587 mmHg 31%
    12:00 +29°C° 0 mm 1 m/S 587 mmHg 28%
    13:00 +30°C° 0 mm 1 m/S 587 mmHg 25%
    14:00 +31°C° 0 mm 2 m/S 586 mmHg 22%
    15:00 +31°C° 0 mm 2 m/S 586 mmHg 21%
    16:00 +32°C° 0 mm 2 m/S 586 mmHg 20%
    17:00 +32°C° 0 mm 2 m/S 586 mmHg 20%
    18:00 +33°C° 0 mm 3 m/S 586 mmHg 22%
    19:00 +31°C° 0 mm 3 m/S 586 mmHg 24%
    20:00 +31°C° 0 mm 3 m/S 586 mmHg 26%
    21:00 +30°C° 0,1 mm 3 m/S 586 mmHg 30%
    22:00 +29°C° 0,1 mm 4 m/S 586 mmHg 34%
    23:00 +28°C° 0,1 mm 4 m/S 586 mmHg 39%

    übermorgen, 25 Juli, Dienstag

    Zeit Temperatur Niederschläge Wind Luftdruck Luftfeuchtigkeit
    00:00 +27°C° 0,1 mm 4 m/S 585 mmHg 42%
    01:00 +26°C° 0,1 mm 3 m/S 585 mmHg 45%
    02:00 +26°C° 0,1 mm 3 m/S 584 mmHg 47%
    03:00 +25°C° 0 mm 3 m/S 584 mmHg 48%
    04:00 +25°C° 0 mm 2 m/S 584 mmHg 48%
    05:00 +24°C° 0 mm 2 m/S 584 mmHg 48%
    06:00 +25°C° 0 mm 2 m/S 584 mmHg 44%
    07:00 +25°C° 0 mm 2 m/S 585 mmHg 39%
    08:00 +26°C° 0 mm 2 m/S 585 mmHg 35%
    09:00 +27°C° 0 mm 2 m/S 586 mmHg 31%
    10:00 +28°C° 0 mm 2 m/S 586 mmHg 27%
    11:00 +29°C° 0 mm 1 m/S 586 mmHg 22%
    12:00 +30°C° 0 mm 1 m/S 586 mmHg 19%
    13:00 +31°C° 0 mm 1 m/S 586 mmHg 17%
    14:00 +32°C° 0 mm 2 m/S 586 mmHg 14%
    15:00 +34°C° 0 mm 2 m/S 586 mmHg 13%
    16:00 +34°C° 0 mm 2 m/S 586 mmHg 13%
    17:00 +35°C° 0 mm 2 m/S 586 mmHg 12%
    18:00 +34°C° 0 mm 3 m/S 586 mmHg 15%
    19:00 +33°C° 0 mm 3 m/S 586 mmHg 18%
    20:00 +31°C° 0 mm 3 m/S 586 mmHg 21%
    21:00 +30°C° 0 mm 3 m/S 586 mmHg 27%
    22:00 +29°C° 0 mm 3 m/S 586 mmHg 32%
    23:00 +28°C° 0 mm 4 m/S 586 mmHg 37%

    26 Juli, Mittwoch

    Zeit Temperatur Niederschläge Wind Luftdruck Luftfeuchtigkeit
    00:00 +27°C° 0 mm 3 m/S 585 mmHg 41%
    01:00 +27°C° 0 mm 3 m/S 585 mmHg 45%
    02:00 +26°C° 0 mm 3 m/S 585 mmHg 50%
    03:00 +25°C° 0 mm 3 m/S 585 mmHg 51%
    04:00 +25°C° 0 mm 2 m/S 585 mmHg 52%
    05:00 +25°C° 0 mm 2 m/S 585 mmHg 54%
    06:00 +25°C° 0 mm 2 m/S 585 mmHg 51%
    07:00 +25°C° 0 mm 2 m/S 586 mmHg 48%
    08:00 +26°C° 0 mm 2 m/S 586 mmHg 46%
    09:00 +27°C° 0 mm 2 m/S 586 mmHg 41%
    10:00 +28°C° 0 mm 2 m/S 587 mmHg 35%
    11:00 +29°C° 0 mm 1 m/S 587 mmHg 30%
    12:00 +30°C° 0,1 mm 1 m/S 587 mmHg 27%
    13:00 +31°C° 0,1 mm 2 m/S 587 mmHg 25%
    14:00 +32°C° 0,1 mm 2 m/S 587 mmHg 22%
    15:00 +32°C° 0 mm 2 m/S 587 mmHg 22%
    16:00 +34°C° 0 mm 2 m/S 587 mmHg 21%
    17:00 +34°C° 0 mm 3 m/S 587 mmHg 21%
    18:00 +33°C° 0,1 mm 3 m/S 587 mmHg 25%
    19:00 +32°C° 0,1 mm 4 m/S 587 mmHg 28%
    20:00 +32°C° 0,1 mm 4 m/S 587 mmHg 32%
    21:00 +30°C° 0 mm 4 m/S 587 mmHg 37%
    22:00 +29°C° 0 mm 4 m/S 587 mmHg 43%
    23:00 +28°C° 0 mm 5 m/S 587 mmHg 48%

    27 Juli, Donnerstag

    Zeit Temperatur Niederschläge Wind Luftdruck Luftfeuchtigkeit
    00:00 +27°C° 0,3 mm 4 m/S 587 mmHg 50%
    01:00 +26°C° 0,3 mm 3 m/S 586 mmHg 52%
    02:00 +26°C° 0,3 mm 3 m/S 586 mmHg 53%
    03:00 +25°C° 0 mm 2 m/S 586 mmHg 54%
    04:00 +25°C° 0 mm 2 m/S 586 mmHg 56%
    05:00 +25°C° 0 mm 2 m/S 586 mmHg 57%
    06:00 +25°C° 0 mm 1 m/S 586 mmHg 52%
    07:00 +26°C° 0 mm 1 m/S 587 mmHg 47%
    08:00 +26°C° 0 mm 1 m/S 587 mmHg 43%
    09:00 +28°C° 0 mm 1 m/S 588 mmHg 38%
    10:00 +29°C° 0 mm 1 m/S 588 mmHg 34%
    11:00 +30°C° 0 mm 1 m/S 588 mmHg 29%
    12:00 +31°C° 0 mm 1 m/S 588 mmHg 26%
    13:00 +32°C° 0 mm 1 m/S 588 mmHg 22%
    14:00 +34°C° 0 mm 2 m/S 588 mmHg 19%
    15:00 +35°C° 0 mm 2 m/S 588 mmHg 18%
    16:00 +35°C° 0 mm 2 m/S 588 mmHg 18%
    17:00 +35°C° 0 mm 2 m/S 588 mmHg 17%
    18:00 +34°C° 0 mm 3 m/S 588 mmHg 21%
    19:00 +34°C° 0 mm 3 m/S 588 mmHg 25%
    20:00 +33°C° 0 mm 4 m/S 588 mmHg 29%
    21:00 +32°C° 0,1 mm 4 m/S 587 mmHg 33%
    22:00 +29°C° 0,1 mm 4 m/S 587 mmHg 38%
    23:00 +28°C° 0,1 mm 4 m/S 587 mmHg 43%

    28 Juli, Freitag

    Zeit Temperatur Niederschläge Wind Luftdruck Luftfeuchtigkeit
    00:00 +28°C° 0 mm 4 m/S 587 mmHg 46%
    01:00 +27°C° 0 mm 3 m/S 586 mmHg 49%
    02:00 +26°C° 0 mm 2 m/S 586 mmHg 51%
    03:00 +26°C° 0 mm 2 m/S 586 mmHg 52%
    04:00 +25°C° 0 mm 2 m/S 586 mmHg 52%
    05:00 +25°C° 0 mm 2 m/S 586 mmHg 52%
    06:00 +25°C° 0 mm 2 m/S 587 mmHg 49%
    07:00 +26°C° 0 mm 2 m/S 587 mmHg 46%
    08:00 +26°C° 0 mm 2 m/S 588 mmHg 43%
    09:00 +27°C° 0 mm 2 m/S 588 mmHg 36%
    10:00 +29°C° 0 mm 2 m/S 588 mmHg 28%
    11:00 +30°C° 0 mm 2 m/S 589 mmHg 20%
    12:00 +31°C° 0 mm 2 m/S 589 mmHg 18%
    13:00 +32°C° 0 mm 2 m/S 589 mmHg 16%
    14:00 +34°C° 0 mm 2 m/S 588 mmHg 13%
    15:00 +34°C° 0 mm 2 m/S 588 mmHg 13%
    16:00 +34°C° 0 mm 2 m/S 588 mmHg 13%
    17:00 +35°C° 0 mm 2 m/S 588 mmHg 14%
    18:00 +33°C° 0 mm 3 m/S 588 mmHg 20%
    19:00 +32°C° 0 mm 4 m/S 588 mmHg 26%
    20:00 +30°C° 0 mm 5 m/S 587 mmHg 32%
    21:00 +29°C° 0,2 mm 4 m/S 587 mmHg 38%
    22:00 +28°C° 0,2 mm 3 m/S 587 mmHg 44%
    23:00 +27°C° 0,2 mm 3 m/S 587 mmHg 49%
    Mehr zeigen